Showing default

GEESAT 2-11, 58915

Orbit data source: Space-Track

GEESAT 2-11, 58915 is a payload satellite owned by GeeSpace (CN) in LEO that was launched on Fri, 02 Feb 2024 UTC via a CHANG ZHENG 2C launch vehicle from the Xichang Space Center, China (XSC). Payload-class satellites include a variety of spacecraft equipped with specific instruments for various scientific and technological missions. These include communications satellites like Starlink; space stations such as the ISS; scientific satellites like the Hubble; Earth observation satellites from companies like Planet Labs, Umbra, and HawkEye 360; GPS; miniature CubeSats for education and research; and military/defense satellites.

Loading next visibility...
Identifier
58915, 2024-023L
Orbit
LEO
Last TLE update
10 hours ago
Origin
Manufacturer
Taizhou Xingkong
Mission
Operational Commercial Navigation
Bus & Motor
GEESAT1, Unknown motor
Mass
130 kg wet, 130 kg dry
Launch date (UTC)
2024-02-02 (1 year ago)
Launch vehicle
CHANG ZHENG 2C
Launch site
Xichang Space Center, China (XSC)
Object type
Payload
Rocket body
Debris
Shape & HBR
Box + 2 Pan, 2 m
Radar Cross Section
0.833 m², Medium (>0.1 m² and < 1m²)

Expand to show TLE details & history

TLE from 10 hours ago
0 GEESAT 2-11
1 58915U 24023L   25184.16203158  .00002531  00000-0  26145-3 0  9997
2 58915  49.9974 176.7332 0006741 269.7817  90.2353 14.93412748 77020
Epoch: 2025-07-03T03:53Z
TLE epoch observation values (Epoch: 2025-07-03T03:53:19.528Z)
Latitude
-0.00002°
Longitude
-163.03092°
Altitude
587.872 km
Speed
7.568 km/s
True Right ascension
11h 46m 55s
True Declination
0° 00' 00"
Sunlit
Object was in daylight at epoch
Visualization orbit readout
Latitude
34.56197°
Longitude
-20.13208°
Altitude
593.001 km
Speed
7.566 km/s
Apparent Right ascension
18h 02m 42s
Apparent Declination
-1° 17' 27"
Sunlit
Object is in daylight
Visualization observer readout
Local Sidereal Time
01:53:49
Azimuth
287.667° WNW
Elevation
-21.83°
Doppler factor
1
Orbital elements
Apogee altitude
592.762 km
Perigee altitude
583.37 km
Semi-major axis
6,966.203 km
Eccentricity
0.00067
Inclination
49.9974°
RAAN
176.7332°
Arg. of periapsis
269.7817°
True anomaly
Unknown
Mean anomaly
90.2353°
Eccentric anomaly
Unknown
Mean motion
3.73292 °/min
Orbital period
96.44 mins
BSTAR
0.00026145
Loading maneuver chart data...
Loading SW <> Apogee altitude chart data...
Loading historical data...
Loading historical data...
Loading historical data...
Loading historical data...
Loading historical data...
Loading historical data...
Loading historical data...

GEESAT 2-11 Visibility forecast

Observer location: undefined°, undefined°

Span
Click to sort rows by Start time (UTC) header in descending order
Start Az.
Max El. time (UTC)
Max El. Az.
Max El.
End time (UTC)
End Az.
4 mins2025-07-04 00:54:53.606Z163.371° S2025-07-04 00:56:53.606Z135.444° SSE14.457°2025-07-04 00:58:53.606Z104.822° ESE
6 mins2025-07-04 02:34:53.606Z234.351° WSW2025-07-04 02:37:53.606Z56.977° ENE43.476°2025-07-04 02:40:53.606Z55.905° ENE
6 mins2025-07-04 04:15:53.606Z293.488° NW2025-07-04 04:18:53.606Z352.141° N24.931°2025-07-04 04:21:53.606Z40.517° NE
5 mins2025-07-04 05:57:53.606Z323.537° NNW2025-07-04 05:59:53.606Z356.585° N20.271°2025-07-04 06:02:53.606Z48.4° ENE
7 mins2025-07-04 07:38:53.606Z320.241° NNW2025-07-04 07:41:53.606Z27.637° NE33.931°2025-07-04 07:45:53.606Z96.755° ESE
6 mins2025-07-04 09:19:53.606Z282.674° WNW2025-07-04 09:22:53.606Z208.873° SW32.624°2025-07-04 09:25:53.606Z156.423° SSE
|